NOAA 16 DEB, 41285

Orbit data source: Space-Track

NOAA 16 DEB, 41285 is space debris in SSO originally from a launch on Thu, 21 Sep 2000 UTC launched from the Air Force Western Test Range (AFWTR). Debris objects in space refer to the collection of defunct objects orbiting the Earth. Examples of debris include non-operational satellites, rocket bodies, and fragments generated from explosions, collisions, or faulty payload assembly.

Loading next visibility...
Identifier
41285, 2000-055GM
Orbit
SSO
Country
Flag of USUS
Related business
Manufacturer
Unknown
Mission
Spacecraft
Bus & Motor
Unknown
Mass
Unknown
Launch date (UTC)
2000-09-21 (25 years ago)
Launch vehicle
Unknown
Launch site
Air Force Western Test Range (AFWTR)
Object type
Payload
Rocket body
Debris
Shape & HBR
Unknown shape, 0.1 m
Radar Cross Section
Small (<0.1 m²)

Expand to show TLE details & history
Last TLE update: 3 days ago

TLE from 3 days ago
0 NOAA 16 DEB
1 41285U 00055GM  26069.44536861  .00003663  00000-0  15185-2 0  9990
2 41285  98.6650 137.3234 0047555 294.9786  64.6459 14.26543873527405
Epoch: 2026-03-10T10:41Z
TLE epoch observation values (Epoch: 2026-03-10T10:41:19.847Z)
Latitude
-0.00001°
Longitude
168.86685°
Altitude
791.738 km
Speed
7.465 km/s
True Right ascension
09h 09m 17s
True Declination
0° 00' 00"
Sunlit
Object was in full shadow at epoch
Visualization orbit readout
Latitude
Unknown
Longitude
Unknown
Altitude
Unknown
Speed
Unknown
Apparent Right ascension
Unknown
Apparent Declination
Unknown
Sunlit
N/A
Visualization observer readout
Local Sidereal Time
10:29:51
Azimuth
Unknown
Elevation
Unknown
Doppler factor
Unknown
Orbital elements
Apogee altitude
834.592 km
Perigee altitude
766.316 km
Semi-major axis
7,178.591 km
Eccentricity
0.00476
Inclination
98.665°
RAAN
137.3234°
Arg. of periapsis
294.9786°
True anomaly
65.1396°
Mean anomaly
64.6459°
Eccentric anomaly
64.89263°
Mean motion
3.56849 °/min
Orbital period
100.88 mins
BSTAR
0.0015185
Loading maneuver chart data...
Computing Atmospheric mass density...
Loading historical data...
Loading historical data...
Loading historical data...
Loading historical data...
Loading historical data...
Loading historical data...
Loading historical data...

Documentation

Showing up to 5 results
|